Location: Arborea
(39.7744°N, 8.5819°E)
Time: 20:28:13
(UTC+00:00)

CZ-2C DEB - Pass Details

Date: 22 August 2022
Orbit: 681 x 927 km, 97.9° (Epoch: 03 October)

Event Time Altitude Azimuth Distance (km) Brightness Sun altitude
Rises 21:23:10 0° 10° (N) 3,295 ? -31.0°
Reaches altitude 10° 21:25:26 10° 10° (N) 2,398 ? -31.3°
Enters shadow 21:29:29 54° 358° (N) 1,014 ? -31.7°
